Location: Unspecified
(0.0000°N, 0.0000°E)
Time: 21:26:05
(UTC+00:00)

Envisat - Pass Details

Date: 07 August 2021
Orbit: 764 x 766 km, 98.2° (Epoch: 16 September)

Event Time Altitude Azimuth Distance (km) Brightness Sun altitude
Rises 04:32:23 0° 21° (NNE) 3,213 6.8 -22.4°
Reaches altitude 10° 04:34:44 10° 27° (NNE) 2,290 6.0 -21.8°
Maximum altitude 04:39:37 51° 102° (ESE) 952 3.8 -20.6°
Drops below altitude 10° 04:44:31 10° 177° (S) 2,299 5.3 -19.5°
Sets 04:46:53 0° 182° (S) 3,227 6.0 -18.9°
